User: anonymous   Login
Location: Bush Observatory
(40.2653°N, 94.3194°W)
Time: 11:50:11
(UTC-05:00)
Language:

Cosmos 1933 Rocket - Orbit

View from above orbital plane
View from above orbital plane
View from above satellite
View from above satellite

Ground track
Ground track

The orbit data is extracted from the following two-line orbital elements,

1 18959U 88020B   17083.83858513 +.00000082 +00000-0 +70150-5 0  9998
2 18959 082.5405 349.6386 0018239 058.2577 302.0412 14.83327966546998
Epoch (UTC): 24 March 2017 20:07:33
Eccentricity: 0.0018239
inclination: 82.5405°
perigee height: 606 km
apogee height: 631 km
right ascension of ascending node: 349.6386°
argument of perigee: 58.2577°
revolutions per day: 14.83327966
mean anomaly at epoch: 302.0412°
orbit number at epoch: 54699

The dashed part of the orbit path shows where the satellite is in the earth's shadow,  

DLR